Location: Newark
(5.8900°S, 42.6378°W)
Time: 07:14:54
(UTC+00:00)

XW-2D - Visible Passes

Search period start: 23 October 2019 00:00
Search period end: 02 November 2019 00:00
Orbit: 507 x 529 km, 97.5° (Epoch: 23 October)

Date Brightness Start Highest point End Pass type
(mag) Time Alt. Az. Time Alt. Az. Time Alt. Az.
23 Oct ? 07:57:21 10° NE 08:00:44 33° ESE 08:04:09 10° SSE visible
23 Oct ? 21:22:51 10° SW 21:24:35 13° WSW 21:26:19 10° WNW visible
24 Oct ? 07:43:52 10° NE 07:46:39 20° ESE 07:49:28 10° SSE visible
24 Oct ? 21:07:38 10° SSW 21:10:31 21° WSW 21:13:24 10° NW visible
25 Oct ? 07:31:00 10° ENE 07:32:35 12° ESE 07:34:10 10° SE visible
30 Oct ? 07:52:36 10° NE 07:55:51 28° ESE 07:59:08 10° SSE visible
30 Oct ? 21:17:30 10° SW 21:19:43 15° WSW 21:21:55 10° WNW visible
31 Oct ? 07:39:15 10° ENE 07:41:46 17° ESE 07:44:18 10° SE visible
31 Oct ? 21:02:31 10° SSW 21:05:38 24° WSW 21:08:43 10° NW visible
01 Nov ? 07:27:03 10° E 07:27:42 10° ESE 07:28:21 10° ESE visible
